AAL2624 KJFK-KCLT

Flight info

Callsign AAL2624
Flight time N/A
Altitude 32000
Route RBV Q430 COPES Q75 GVE AIROW CHSLY6
Aircraft A321/M-SDE3FGHIRWY/LB1

Departure

Time 2026-05-07 01:43
Airport John F. Kennedy International Airport (KJFK)

Arrival

Time N/A
Airport Charlotte Douglas International Airport (KCLT)
Time Latitude Longitude Altitude Speed Heading
2026-05-07 00:59 40.65014 -73.79414 16 ft 0 kts 150°
2026-05-07 01:24 40.65015 -73.79414 16 ft 2 kts 150°
2026-05-07 01:25 40.65019 -73.79418 16 ft 2 kts 150°
2026-05-07 01:25 40.65033 -73.79428 18 ft 2 kts 150°
2026-05-07 01:25 40.65047 -73.79439 18 ft 2 kts 150°
2026-05-07 01:25 40.65061 -73.79449 17 ft 2 kts 150°
2026-05-07 01:26 40.65072 -73.79457 17 ft 0 kts 150°
2026-05-07 01:28 40.65067 -73.79457 18 ft 0 kts 179°
2026-05-07 01:29 40.65059 -73.79463 18 ft 2 kts 205°
2026-05-07 01:29 40.65050 -73.79480 18 ft 0 kts 238°
2026-05-07 01:31 40.65047 -73.79486 18 ft 3 kts 237°
2026-05-07 01:31 40.65030 -73.79544 16 ft 9 kts 265°
2026-05-07 01:32 40.65045 -73.79600 17 ft 4 kts 313°
2026-05-07 01:32 40.65059 -73.79608 16 ft 1 kts 347°
2026-05-07 01:32 40.65072 -73.79603 16 ft 4 kts 19°
2026-05-07 01:32 40.65101 -73.79557 16 ft 10 kts 61°
2026-05-07 01:33 40.65142 -73.79464 17 ft 11 kts 60°
2026-05-07 01:33 40.65173 -73.79393 16 ft 7 kts 60°
2026-05-07 01:33 40.65197 -73.79338 16 ft 9 kts 62°
2026-05-07 01:33 40.65210 -73.79246 16 ft 10 kts 98°
2026-05-07 01:34 40.65197 -73.79170 16 ft 7 kts 105°
2026-05-07 01:34 40.65189 -73.79129 18 ft 3 kts 105°
2026-05-07 01:34 40.65182 -73.79091 16 ft 7 kts 104°
2026-05-07 01:34 40.65172 -73.79039 16 ft 4 kts 104°
2026-05-07 01:35 40.65165 -73.79010 16 ft 5 kts 108°
2026-05-07 01:35 40.65138 -73.78897 16 ft 20 kts 104°
2026-05-07 01:35 40.65160 -73.78727 16 ft 18 kts 63°
2026-05-07 01:35 40.65213 -73.78598 20 ft 14 kts 61°
2026-05-07 01:36 40.65262 -73.78475 16 ft 15 kts 68°
2026-05-07 01:36 40.65253 -73.78349 16 ft 13 kts 117°
2026-05-07 01:36 40.65211 -73.78245 16 ft 12 kts 120°
2026-05-07 01:36 40.65169 -73.78155 16 ft 11 kts 121°
2026-05-07 01:37 40.65131 -73.78075 16 ft 10 kts 121°
2026-05-07 01:37 40.65085 -73.77976 16 ft 13 kts 122°
2026-05-07 01:37 40.65039 -73.77877 16 ft 12 kts 122°
2026-05-07 01:37 40.64996 -73.77785 16 ft 11 kts 121°
2026-05-07 01:38 40.64958 -73.77703 16 ft 10 kts 121°
2026-05-07 01:38 40.64925 -73.77631 16 ft 9 kts 121°
2026-05-07 01:38 40.64903 -73.77563 16 ft 8 kts 89°
2026-05-07 01:38 40.64932 -73.77518 16 ft 6 kts 44°
2026-05-07 01:39 40.64987 -73.77461 17 ft 17 kts 34°
2026-05-07 01:39 40.65080 -73.77407 16 ft 14 kts 24°
2026-05-07 01:39 40.65133 -73.77331 16 ft 11 kts 95°
2026-05-07 01:39 40.65103 -73.77250 16 ft 11 kts 123°
2026-05-07 01:40 40.65041 -73.77117 16 ft 22 kts 120°
2026-05-07 01:40 40.64964 -73.76946 16 ft 21 kts 121°
2026-05-07 01:40 40.64893 -73.76791 15 ft 19 kts 121°
2026-05-07 01:40 40.64881 -73.76698 17 ft 8 kts 45°
2026-05-07 01:41 40.64924 -73.76658 15 ft 7 kts 34°
2026-05-07 01:41 40.64956 -73.76631 16 ft 6 kts 29°
2026-05-07 01:41 40.65013 -73.76563 16 ft 11 kts 92°
2026-05-07 01:41 40.64980 -73.76479 16 ft 9 kts 120°
2026-05-07 01:42 40.64941 -73.76421 15 ft 8 kts 161°
2026-05-07 01:42 40.64899 -73.76448 15 ft 7 kts 213°
2026-05-07 01:42 40.64760 -73.76559 15 ft 54 kts 211°
2026-05-07 01:42 40.64242 -73.76964 16 ft 116 kts 211°
2026-05-07 01:43 40.63402 -73.77620 23 ft 162 kts 211°
2026-05-07 01:43 40.62400 -73.78406 466 ft 171 kts 211°
2026-05-07 01:43 40.61358 -73.79217 1041 ft 177 kts 212°
2026-05-07 01:43 40.60287 -73.80018 1681 ft 178 kts 217°
2026-05-07 01:44 40.59196 -73.80913 1952 ft 197 kts 218°
2026-05-07 01:44 40.57973 -73.81943 2160 ft 221 kts 218°
2026-05-07 01:44 40.56614 -73.83082 2494 ft 240 kts 217°
2026-05-07 01:44 40.55174 -73.84270 3133 ft 246 kts 217°
2026-05-07 01:45 40.53728 -73.85495 3884 ft 247 kts 217°
2026-05-07 01:45 40.52300 -73.86710 4629 ft 248 kts 217°
2026-05-07 01:45 40.50841 -73.87942 5376 ft 249 kts 217°
2026-05-07 01:45 40.49376 -73.89171 6114 ft 250 kts 218°
2026-05-07 01:46 40.47896 -73.90402 6804 ft 251 kts 217°
2026-05-07 01:46 40.46407 -73.91630 7464 ft 254 kts 218°
2026-05-07 01:46 40.44921 -73.92837 8141 ft 254 kts 218°
2026-05-07 01:46 40.43408 -73.94055 8826 ft 255 kts 218°
2026-05-07 01:47 40.41888 -73.95262 9523 ft 256 kts 218°
2026-05-07 01:47 40.40349 -73.96476 9908 ft 259 kts 217°
2026-05-07 01:47 40.38951 -73.97900 9999 ft 257 kts 234°
2026-05-07 01:47 40.38013 -73.99991 10014 ft 277 kts 246°
2026-05-07 01:48 40.37168 -74.02343 10031 ft 300 kts 246°
2026-05-07 01:48 40.36270 -74.04872 10295 ft 310 kts 246°
2026-05-07 01:48 40.35350 -74.07460 10792 ft 314 kts 246°
2026-05-07 01:48 40.34419 -74.10076 11325 ft 318 kts 246°
2026-05-07 01:49 40.33480 -74.12714 11870 ft 320 kts 246°
2026-05-07 01:49 40.32532 -74.15374 12450 ft 322 kts 246°
2026-05-07 01:49 40.31587 -74.18009 12992 ft 325 kts 246°
2026-05-07 01:49 40.30617 -74.20708 13538 ft 327 kts 245°
2026-05-07 01:50 40.29641 -74.23417 14029 ft 329 kts 246°
2026-05-07 01:50 40.28658 -74.26146 14494 ft 331 kts 246°
2026-05-07 01:50 40.27688 -74.28839 14947 ft 334 kts 246°
2026-05-07 01:50 40.26687 -74.31617 15395 ft 336 kts 246°
2026-05-07 01:51 40.25688 -74.34405 15840 ft 339 kts 246°
2026-05-07 01:51 40.24682 -74.37208 16279 ft 341 kts 246°
2026-05-07 01:51 40.23663 -74.40029 16700 ft 343 kts 246°
2026-05-07 01:51 40.22650 -74.42828 17102 ft 345 kts 246°
2026-05-07 01:52 40.21618 -74.45682 17503 ft 347 kts 246°
2026-05-07 01:52 40.20646 -74.48585 17879 ft 349 kts 252°
2026-05-07 01:52 40.20075 -74.51689 18251 ft 351 kts 262°
2026-05-07 01:52 40.19831 -74.54866 18600 ft 352 kts 263°
2026-05-07 01:53 40.19594 -74.58008 18981 ft 352 kts 263°
2026-05-07 01:53 40.19344 -74.61193 19374 ft 351 kts 263°
2026-05-07 01:53 40.19088 -74.64376 19781 ft 350 kts 263°
2026-05-07 01:53 40.18835 -74.67548 20184 ft 350 kts 263°
2026-05-07 01:54 40.18583 -74.70710 20606 ft 349 kts 263°
2026-05-07 01:54 40.18335 -74.73828 21028 ft 349 kts 264°
2026-05-07 01:54 40.18083 -74.76987 21452 ft 348 kts 264°
2026-05-07 01:54 40.17828 -74.80138 21886 ft 348 kts 264°
2026-05-07 01:55 40.17570 -74.83289 22316 ft 347 kts 264°
2026-05-07 01:55 40.17319 -74.86393 22736 ft 347 kts 264°
2026-05-07 01:55 40.17065 -74.89535 23137 ft 347 kts 264°
2026-05-07 01:55 40.16809 -74.92689 23547 ft 348 kts 264°
2026-05-07 01:56 40.16552 -74.95834 23880 ft 347 kts 264°
2026-05-07 01:56 40.16295 -74.98983 24191 ft 348 kts 264°
2026-05-07 01:56 40.16041 -75.02096 24492 ft 348 kts 264°
2026-05-07 01:56 40.15786 -75.05248 24786 ft 349 kts 264°
2026-05-07 01:57 40.15528 -75.08406 25089 ft 349 kts 264°
2026-05-07 01:57 40.15267 -75.11570 25384 ft 350 kts 264°
2026-05-07 01:57 40.15006 -75.14738 25680 ft 351 kts 264°
2026-05-07 01:58 40.14694 -75.18522 26036 ft 351 kts 264°
2026-05-07 01:58 40.14428 -75.21702 26327 ft 352 kts 264°
2026-05-07 01:58 40.14159 -75.24887 26604 ft 353 kts 264°
2026-05-07 01:58 40.13890 -75.28040 26873 ft 353 kts 264°
2026-05-07 01:59 40.13618 -75.31242 27140 ft 354 kts 264°
2026-05-07 01:59 40.13176 -75.34412 27386 ft 356 kts 256°
2026-05-07 01:59 40.12307 -75.37461 27632 ft 360 kts 249°
2026-05-07 01:59 40.11042 -75.40270 27832 ft 367 kts 240°
2026-05-07 02:00 40.09375 -75.42837 28028 ft 374 kts 235°
2026-05-07 02:00 40.07587 -75.45311 28229 ft 375 kts 235°
2026-05-07 02:00 40.05795 -75.47787 28422 ft 375 kts 235°
2026-05-07 02:00 40.03997 -75.50272 28616 ft 375 kts 235°
2026-05-07 02:01 40.02222 -75.52721 28877 ft 374 kts 235°
2026-05-07 02:01 40.00438 -75.55181 29149 ft 372 kts 235°
2026-05-07 02:01 39.98656 -75.57639 29427 ft 370 kts 235°
2026-05-07 02:01 39.96893 -75.60074 29673 ft 369 kts 235°
2026-05-07 02:02 39.95131 -75.62503 29925 ft 368 kts 235°
2026-05-07 02:02 39.93371 -75.64924 30151 ft 366 kts 235°
2026-05-07 02:02 39.91644 -75.67306 30332 ft 364 kts 236°
2026-05-07 02:02 39.89975 -75.69780 30527 ft 361 kts 238°
2026-05-07 02:03 39.88383 -75.72304 30714 ft 359 kts 239°
2026-05-07 02:03 39.86849 -75.74815 30912 ft 358 kts 239°
2026-05-07 02:03 39.85308 -75.77359 31104 ft 357 kts 239°
2026-05-07 02:03 39.83765 -75.79893 31303 ft 356 kts 239°
2026-05-07 02:04 39.82216 -75.82417 31500 ft 356 kts 239°
2026-05-07 02:04 39.80680 -75.84893 31687 ft 355 kts 239°
2026-05-07 02:04 39.79122 -75.87380 31865 ft 355 kts 239°
2026-05-07 02:05 39.76502 -75.91547 31903 ft 360 kts 239°
2026-05-07 02:05 39.72783 -75.97449 31908 ft 364 kts 238°
2026-05-07 02:06 39.70108 -76.01687 31893 ft 364 kts 238°
2026-05-07 02:06 39.66890 -76.06777 31891 ft 364 kts 238°
2026-05-07 02:07 39.63691 -76.11834 31887 ft 365 kts 238°
2026-05-07 02:07 39.58846 -76.19461 31889 ft 365 kts 238°
2026-05-07 02:08 39.55589 -76.24477 31881 ft 365 kts 238°
2026-05-07 02:08 39.52298 -76.29516 31879 ft 366 kts 238°
2026-05-07 02:09 39.49032 -76.34523 31876 ft 366 kts 237°
2026-05-07 02:09 39.45718 -76.39553 31893 ft 368 kts 236°
2026-05-07 02:10 39.42161 -76.44326 31891 ft 372 kts 233°
2026-05-07 02:10 39.38462 -76.49031 31891 ft 372 kts 233°
2026-05-07 02:11 39.34808 -76.53725 31889 ft 372 kts 234°
2026-05-07 02:11 39.31158 -76.58483 31885 ft 372 kts 234°
2026-05-07 02:12 39.27502 -76.63250 31858 ft 373 kts 234°
2026-05-07 02:12 39.23871 -76.67985 31862 ft 373 kts 234°
2026-05-07 02:13 39.20205 -76.72753 31861 ft 373 kts 234°
2026-05-07 02:13 39.16557 -76.77471 31872 ft 373 kts 233°
2026-05-07 02:14 39.12883 -76.82216 31903 ft 374 kts 233°
2026-05-07 02:14 39.09232 -76.86938 31900 ft 374 kts 233°
2026-05-07 02:15 39.05552 -76.91699 31874 ft 375 kts 233°
2026-05-07 02:15 39.01888 -76.96425 31880 ft 375 kts 233°
2026-05-07 02:16 38.98218 -77.01147 31880 ft 375 kts 233°
2026-05-07 02:16 38.94626 -77.05785 31870 ft 376 kts 233°
2026-05-07 02:17 38.90920 -77.10539 31866 ft 376 kts 233°
2026-05-07 02:17 38.87236 -77.15257 31868 ft 377 kts 233°
2026-05-07 02:18 38.83521 -77.20014 31843 ft 377 kts 233°
2026-05-07 02:18 38.79800 -77.24779 31845 ft 377 kts 233°
2026-05-07 02:19 38.76093 -77.29509 31849 ft 378 kts 233°
2026-05-07 02:19 38.72345 -77.34255 31848 ft 379 kts 232°
2026-05-07 02:20 38.68464 -77.38824 31885 ft 382 kts 231°
2026-05-07 02:20 38.64470 -77.43354 31885 ft 382 kts 231°
2026-05-07 02:21 38.60518 -77.47861 31882 ft 382 kts 231°
2026-05-07 02:21 38.56565 -77.52413 31886 ft 383 kts 231°
2026-05-07 02:22 38.52599 -77.56981 31888 ft 383 kts 231°
2026-05-07 02:22 38.48633 -77.61547 31896 ft 384 kts 231°
2026-05-07 02:23 38.44677 -77.66084 31894 ft 384 kts 231°
2026-05-07 02:23 38.40712 -77.70616 31904 ft 385 kts 231°
2026-05-07 02:24 38.36719 -77.75178 31902 ft 385 kts 231°
2026-05-07 02:24 38.32729 -77.79738 31895 ft 385 kts 231°
2026-05-07 02:25 38.28755 -77.84261 31881 ft 385 kts 230°
2026-05-07 02:25 38.24753 -77.88808 31875 ft 385 kts 230°
2026-05-07 02:26 38.20768 -77.93341 31886 ft 386 kts 230°
2026-05-07 02:26 38.16764 -77.97889 31879 ft 386 kts 230°
2026-05-07 02:27 38.12763 -78.02423 31878 ft 386 kts 230°
2026-05-07 02:27 38.08752 -78.06961 31875 ft 386 kts 230°
2026-05-07 02:28 38.04750 -78.11478 31875 ft 387 kts 230°
2026-05-07 02:28 38.00793 -78.16097 31875 ft 381 kts 236°
2026-05-07 02:29 37.97289 -78.21085 31876 ft 380 kts 236°
2026-05-07 02:29 37.93793 -78.26080 31875 ft 381 kts 236°
2026-05-07 02:30 37.90267 -78.31112 31871 ft 381 kts 236°
2026-05-07 02:30 37.86751 -78.36106 31872 ft 381 kts 236°
2026-05-07 02:31 37.83212 -78.41113 31880 ft 381 kts 236°
2026-05-07 02:31 37.79699 -78.46081 31879 ft 381 kts 236°
2026-05-07 02:32 37.76158 -78.51083 31879 ft 381 kts 236°
2026-05-07 02:32 37.72632 -78.56053 31884 ft 381 kts 236°
2026-05-07 02:33 37.69091 -78.61051 31882 ft 381 kts 236°
2026-05-07 02:33 37.65548 -78.66048 31889 ft 382 kts 236°
2026-05-07 02:34 37.62020 -78.71009 31895 ft 382 kts 236°
2026-05-07 02:34 37.58472 -78.75993 31892 ft 382 kts 236°
2026-05-07 02:35 37.54911 -78.80977 31897 ft 382 kts 236°
2026-05-07 02:35 37.51350 -78.85953 31898 ft 382 kts 236°
2026-05-07 02:36 37.47811 -78.90900 31900 ft 382 kts 236°
2026-05-07 02:36 37.44242 -78.95874 31908 ft 383 kts 236°
2026-05-07 02:37 37.40660 -79.00856 31912 ft 383 kts 236°
2026-05-07 02:37 37.37098 -79.05794 31914 ft 383 kts 236°
2026-05-07 02:38 37.33516 -79.10766 31912 ft 383 kts 236°
2026-05-07 02:38 37.29955 -79.15701 31909 ft 383 kts 236°
2026-05-07 02:39 37.26354 -79.20667 31910 ft 384 kts 236°
2026-05-07 02:39 37.22318 -79.25135 31904 ft 397 kts 225°
2026-05-07 02:40 37.17824 -79.29183 31898 ft 397 kts 225°
2026-05-07 02:40 37.13325 -79.33234 31897 ft 398 kts 225°
2026-05-07 02:41 37.08842 -79.37267 31901 ft 399 kts 225°
2026-05-07 02:41 37.04316 -79.41331 31900 ft 399 kts 225°
2026-05-07 02:42 36.99783 -79.45372 31900 ft 401 kts 224°
2026-05-07 02:42 36.95170 -79.49277 31902 ft 403 kts 223°
2026-05-07 02:43 36.90491 -79.53167 31908 ft 404 kts 223°
2026-05-07 02:43 36.85849 -79.57053 31916 ft 404 kts 224°
2026-05-07 02:44 36.81183 -79.60982 31903 ft 404 kts 224°
2026-05-07 02:44 36.76513 -79.64917 31911 ft 405 kts 223°
2026-05-07 02:45 36.71866 -79.68812 31922 ft 405 kts 223°
2026-05-07 02:45 36.67175 -79.72726 31934 ft 405 kts 223°
2026-05-07 02:46 36.62483 -79.76635 31930 ft 406 kts 223°
2026-05-07 02:46 36.57813 -79.80531 31939 ft 406 kts 223°
2026-05-07 02:47 36.53124 -79.84448 31946 ft 406 kts 223°
2026-05-07 02:47 36.48450 -79.88333 31945 ft 406 kts 223°
2026-05-07 02:48 36.43733 -79.92248 31944 ft 407 kts 223°
2026-05-07 02:48 36.39050 -79.96121 31941 ft 407 kts 223°
2026-05-07 02:49 36.34331 -80.00031 31938 ft 407 kts 223°
2026-05-07 02:49 36.29607 -80.03946 31933 ft 408 kts 223°
2026-05-07 02:50 36.24903 -80.07820 31931 ft 408 kts 223°
2026-05-07 02:50 36.20162 -80.11713 31931 ft 408 kts 223°
2026-05-07 02:51 36.15425 -80.15601 31931 ft 408 kts 223°
2026-05-07 02:51 36.10718 -80.19472 31928 ft 408 kts 223°
2026-05-07 02:52 36.05983 -80.23368 31925 ft 409 kts 223°
2026-05-07 02:52 36.01258 -80.27230 31951 ft 409 kts 222°
2026-05-07 02:53 35.96507 -80.31104 31960 ft 409 kts 222°
2026-05-07 02:53 35.91753 -80.34990 31975 ft 409 kts 222°
2026-05-07 02:54 35.87022 -80.38845 31982 ft 409 kts 222°
2026-05-07 02:54 35.82264 -80.42710 31984 ft 409 kts 222°
2026-05-07 02:55 35.77502 -80.46508 31976 ft 410 kts 221°
2026-05-07 02:55 35.72678 -80.50301 31987 ft 411 kts 221°
2026-05-07 02:56 35.67875 -80.54077 31988 ft 412 kts 221°
2026-05-07 02:56 35.62989 -80.57812 31990 ft 414 kts 220°
2026-05-07 02:57 35.58061 -80.61515 31984 ft 415 kts 220°
2026-05-07 02:57 35.53163 -80.65196 31965 ft 416 kts 220°
2026-05-07 02:58 35.48208 -80.68900 32021 ft 417 kts 219°
2026-05-07 02:58 35.43227 -80.72602 32023 ft 418 kts 219°
2026-05-07 02:59 35.38261 -80.76283 32025 ft 419 kts 219°
2026-05-07 02:59 35.33296 -80.79966 32041 ft 420 kts 219°
2026-05-07 03:00 35.28119 -80.83416 32031 ft 438 kts 204°
2026-05-07 03:00 35.25064 -80.84068 32024 ft 454 kts 194°
2026-05-07 03:00 35.21860 -80.84106 32033 ft 465 kts 186°
2026-05-07 03:01 35.15390 -80.83150 32023 ft 474 kts 180°
2026-05-07 03:01 35.08860 -80.82055 32006 ft 471 kts 183°
2026-05-07 03:02 35.02336 -80.81331 31996 ft 470 kts 184°
2026-05-07 03:02 34.95815 -80.80713 31989 ft 470 kts 184°
2026-05-07 03:03 34.89325 -80.80052 32009 ft 471 kts 184°
2026-05-07 03:03 34.82791 -80.79337 32027 ft 471 kts 183°
2026-05-07 03:04 34.76285 -80.78615 32033 ft 471 kts 183°
2026-05-07 03:04 34.69747 -80.77910 32031 ft 471 kts 184°
2026-05-07 03:05 34.63244 -80.77222 32026 ft 472 kts 184°
2026-05-07 03:05 34.56687 -80.76531 32007 ft 472 kts 184°
2026-05-07 03:06 34.50141 -80.75836 31983 ft 472 kts 184°
2026-05-07 03:06 34.43623 -80.75134 31976 ft 473 kts 184°
2026-05-07 03:07 34.37059 -80.74431 31985 ft 473 kts 184°
2026-05-07 03:07 34.30528 -80.73740 31994 ft 473 kts 184°
2026-05-07 03:08 34.23955 -80.73039 31994 ft 473 kts 184°
2026-05-07 03:08 34.17435 -80.72345 31988 ft 473 kts 184°
2026-05-07 03:09 34.10855 -80.71652 31958 ft 474 kts 184°
2026-05-07 03:09 34.04302 -80.70968 31962 ft 475 kts 184°
2026-05-07 03:10 33.97708 -80.70277 31966 ft 475 kts 184°
2026-05-07 03:10 33.91143 -80.69582 31968 ft 476 kts 184°
2026-05-07 03:11 33.84530 -80.68880 31968 ft 476 kts 184°
2026-05-07 03:11 33.77956 -80.68190 31966 ft 477 kts 184°
2026-05-07 03:12 33.71339 -80.67502 31968 ft 477 kts 184°
2026-05-07 03:12 33.64705 -80.66808 31993 ft 478 kts 184°
2026-05-07 03:13 33.58106 -80.66111 32000 ft 479 kts 183°
2026-05-07 03:13 33.51450 -80.65418 32009 ft 479 kts 184°
2026-05-07 03:14 33.44828 -80.64741 32014 ft 480 kts 183°
2026-05-07 03:15 33.34809 -80.63692 32009 ft 482 kts 183°
2026-05-07 03:15 33.28162 -80.63001 32004 ft 482 kts 183°
2026-05-07 03:16 33.21468 -80.62308 32006 ft 482 kts 183°
2026-05-07 03:16 33.14804 -80.61618 32013 ft 483 kts 183°
2026-05-07 03:17 33.08096 -80.60922 32019 ft 483 kts 183°
2026-05-07 03:17 33.02520 -80.60348 32025 ft 483 kts 183°
2026-05-07 03:18 32.94715 -80.59553 32023 ft 483 kts 182°
2026-05-07 03:18 32.89128 -80.58980 32024 ft 484 kts 182°
2026-05-07 03:19 32.81326 -80.58177 32023 ft 484 kts 182°
2026-05-07 03:19 32.75729 -80.57599 32022 ft 484 kts 182°
2026-05-07 03:20 32.69000 -80.56906 32021 ft 484 kts 182°
2026-05-07 03:20 32.62319 -80.56217 32024 ft 484 kts 182°
2026-05-07 03:21 32.55596 -80.55537 32022 ft 485 kts 182°
2026-05-07 03:21 32.48863 -80.54856 32026 ft 485 kts 182°
2026-05-07 03:22 32.42174 -80.54175 32026 ft 485 kts 182°
2026-05-07 03:22 32.35439 -80.53481 32042 ft 486 kts 181°
2026-05-07 03:23 32.28690 -80.52796 32038 ft 486 kts 182°
2026-05-07 03:23 32.21972 -80.52125 32042 ft 486 kts 182°
2026-05-07 03:24 32.15256 -80.51444 32037 ft 487 kts 181°
2026-05-07 03:24 32.08483 -80.50752 32035 ft 487 kts 182°
2026-05-07 03:25 32.01740 -80.50077 32034 ft 488 kts 182°
2026-05-07 03:25 31.94957 -80.49400 32035 ft 488 kts 182°
2026-05-07 03:26 31.88226 -80.48724 32036 ft 488 kts 181°
2026-05-07 03:26 31.81443 -80.48035 32043 ft 489 kts 181°